EW6283 Weather Reports


time (UTC)temp
F
wind
direction
speed
knots
gust
knots
rain 1hr
in
rain 24hr
in
rain mn
in
humidity
%
barometer
mb
20260504151027 60 212 11.3 19.1 0.00 0.00 0.00 42 1007.5
20260504150642 60 177 8.7 20.0 0.00 0.00 0.00 44 1007.5
20260504141027 58 245 10.4 21.7 0.00 0.00 0.00 43 1007.9
20260504140527 57 270 13.9 24.3 0.00 0.00 0.00 45 1007.9
20260504130527 55 236 13.0 17.4 0.00 0.00 0.00 47 1008.4
20260504110528 50 227 2.6 10.4 0.00 0.00 0.00 53 1008.8
20260504110144 50 213 3.5 10.4 0.00 0.00 0.00 53 1008.9
20260504081529 47 203 2.6 8.7 0.00 0.00 0.00 59 1008.5
20260504081142 47 243 7.8 9.6 0.00 0.00 0.00 58 1008.6
20260504080527 47 243 4.3 7.0 0.00 0.00 0.00 59 1008.7
20260504080259 47 234 3.5 7.0 0.00 0.00 0.00 59 1008.6
20260504050528 48 232 4.3 9.6 0.00 0.00 0.00 52 1009.4
20260504045643 48 251 8.7 8.7 0.00 0.00 0.00 53 1009.6
20260504045028 48 264 3.5 9.6 0.00 0.00 0.00 53 1009.6
20260504044532 48 231 3.5 9.6 0.00 0.00 0.00 52 1009.7
20260504044028 48 274 7.0 9.6 0.00 0.00 0.00 52 1009.6
20260504043528 47 227 5.2 6.1 0.00 0.00 0.00 53 1009.6
20260504043145 47 241 2.6 6.1 0.00 0.00 0.00 53 1009.6
20260504042644 47 280 3.5 6.1 0.00 0.00 0.00 53 1009.6
20260504042027 47 268 2.6 4.3 0.00 0.00 0.00 53 1009.5
20260504041532 47 226 0.9 4.3 0.00 0.00 0.00 53 1009.5
20260504041259 47 228 2.6 3.5 0.00 0.00 0.00 52 1009.4
20260504040528 47 237 2.6 3.5 0.00 0.00 0.00 53 1009.4
20260504040028 46 304 0.0 6.1 0.00 0.00 0.00 54 1009.3
20260504035643 47 237 1.7 6.1 0.00 0.00 0.00 53 1009.3
20260504035027 47 233 4.3 5.2 0.00 0.00 0.00 53 1009.2
20260504034529 47 228 2.6 5.2 0.00 0.00 0.00 51 1009.2
20260504034027 47 188 1.7 6.1 0.00 0.00 0.00 51 1009.1
20260504033530 47 226 4.3 4.3 0.00 0.00 0.00 50 1009.2
20260504033029 47 251 2.6 7.0 0.00 0.00 0.00 50 1009.1
20260504032528 47 233 6.1 7.8 0.00 0.00 0.00 50 1009.2
20260504032027 47 278 6.1 8.7 0.00 0.00 0.00 50 1009.2
20260504031529 48 274 2.6 8.7 0.00 0.00 0.00 50 1009.1
20260504031027 48 256 2.6 9.6 0.00 0.00 0.00 49 1009.0
20260504030527 48 272 3.5 13.0 0.00 0.00 0.00 49 1009.0
20260504030029 48 305 6.1 13.0 0.00 0.00 0.00 48 1008.9
20260504025528 48 273 7.8 12.2 0.00 0.00 0.00 48 1008.9
20260504025027 48 285 6.1 13.0 0.00 0.00 0.00 47 1008.9
20260504024644 48 303 4.3 13.0 0.00 0.00 0.00 48 1009.0
20260504024142 48 252 4.3 11.3 0.00 0.00 0.00 47 1008.9
20260504023527 48 284 9.6 11.3 0.00 0.00 0.00 47 1009.0
20260504023144 48 281 10.4 11.3 0.00 0.00 0.00 47 1009.0
20260504022642 48 283 5.2 10.4 0.00 0.00 0.00 46 1009.0
20260504022142 48 293 8.7 13.0 0.00 0.00 0.00 46 1009.1
20260504021529 49 289 4.3 13.0 0.00 0.00 0.00 45 1009.1
20260504021027 49 276 5.2 13.9 0.00 0.00 0.00 45 1009.1
20260504020528 49 255 10.4 13.9 0.00 0.00 0.00 45 1009.2
20260504020143 49 347 10.4 11.3 0.00 0.00 0.00 45 1009.2
20260504015528 49 301 6.1 15.6 0.00 0.00 0.00 44 1009.2
20260504015027 49 289 7.0 15.6 0.00 0.00 0.00 44 1009.2
20260504014644 49 264 6.1 14.8 0.00 0.00 0.00 44 1009.0
20260504014030 49 306 11.3 14.8 0.00 0.00 0.00 44 1009.0
20260504013527 49 258 7.0 10.4 0.00 0.00 0.00 44 1008.9
20260504013028 49 260 8.7 16.5 0.00 0.00 0.00 43 1008.9
20260504012527 49 248 7.0 16.5 0.00 0.00 0.00 43 1008.8
20260504012143 49 275 9.6 10.4 0.00 0.00 0.00 42 1008.7
20260504011529 49 310 3.5 16.5 0.00 0.00 0.00 42 1008.6
20260504011027 49 282 6.1 17.4 0.00 0.00 0.00 41 1008.6
20260504010527 49 283 7.8 17.4 0.00 0.00 0.00 41 1008.5
20260504010028 49 264 6.1 8.7 0.00 0.00 0.00 41 1008.5
20260504005643 49 291 3.5 12.2 0.00 0.00 0.00 41 1008.4
20260504005258 49 21 2.6 12.2 0.00 0.00 0.00 40 1008.4
20260504004643 49 222 7.0 12.2 0.00 0.00 0.00 40 1008.3
20260504004142 50 260 8.7 13.0 0.00 0.00 0.00 39 1008.2
20260504003642 50 206 3.5 15.6 0.00 0.00 0.00 38 1008.3
20260504003144 50 283 13.0 14.8 0.00 0.00 0.00 38 1008.1
20260504002527 50 316 4.3 13.9 0.00 0.00 0.00 37 1008.0
20260504002027 50 40 13.9 13.9 0.00 0.00 0.00 37 1008.0
20260504001529 50 210 1.7 9.6 0.00 0.00 0.00 37 1007.8
20260504001141 50 325 2.6 7.8 0.00 0.00 0.00 37 1007.9
20260504000527 50 35 4.3 6.1 0.00 0.00 0.00 36 1007.7
20260504000144 50 269 1.7 9.6 0.00 0.00 0.00 35 1007.6
20260503235527 50 335 1.7 9.6 0.00 0.00 0.00 35 1007.5
20260503235028 50 253 1.7 11.3 0.00 0.00 0.00 35 1007.6
20260503234528 50 237 7.8 8.7 0.00 0.00 0.00 33 1007.4
20260503234142 50 227 4.3 8.7 0.00 0.00 0.00 33 1007.4
20260503233758 50 217 1.7 7.0 0.00 0.00 0.00 33 1007.4
20260503233028 51 254 1.7 7.0 0.00 0.00 0.00 34 1007.4
20260503232528 51 325 7.0 8.7 0.00 0.00 0.00 32 1007.4
20260503232028 51 245 2.6 9.6 0.00 0.00 0.00 32 1007.2
20260503231529 51 282 3.5 9.6 0.00 0.00 0.00 31 1007.2
20260503231027 51 204 2.6 9.6 0.00 0.00 0.00 31 1007.2
20260503230527 51 243 4.3 13.9 0.00 0.00 0.00 31 1007.2
20260503230144 51 207 3.5 13.9 0.00 0.00 0.00 31 1007.2
20260503225528 51 272 3.5 9.6 0.00 0.00 0.00 32 1007.2
20260503225027 51 289 2.6 15.6 0.00 0.00 0.00 31 1007.1
20260503224643 51 207 1.7 15.6 0.00 0.00 0.00 31 1007.1
20260503224026 52 232 5.2 14.8 0.00 0.00 0.00 32 1007.2
20260503223527 51 230 0.9 14.8 0.00 0.00 0.00 33 1007.1
20260503223028 51 279 7.8 19.1 0.00 0.00 0.00 32 1007.2
20260503222644 51 318 7.0 19.1 0.00 0.00 0.00 32 1007.1
20260503222143 51 314 3.5 19.1 0.00 0.00 0.00 34 1007.2
20260503221528 51 269 6.1 21.7 0.00 0.00 0.00 33 1007.2
20260503221142 51 228 7.0 21.7 0.00 0.00 0.00 34 1007.2
20260503220758 51 248 13.9 21.7 0.00 0.00 0.00 34 1007.3
20260503220143 51 246 7.0 18.2 0.00 0.00 0.00 34 1007.1
20260503215528 51 303 15.6 17.4 0.00 0.00 0.00 35 1007.1
20260503215027 51 254 7.8 13.9 0.00 0.00 0.00 36 1007.2
20260503214644 51 334 8.7 23.5 0.00 0.00 0.00 36 1007.2
20260503214258 51 255 9.6 23.5 0.00 0.00 0.00 34 1007.2
20260503213527 51 286 8.7 15.6 0.00 0.00 0.00 38 1007.2
20260503213143 50 249 7.0 17.4 0.00 0.00 0.00 39 1007.2
20260503212528 50 302 12.2 17.4 0.00 0.00 0.00 38 1007.2
20260503212027 50 288 3.5 15.6 0.00 0.00 0.00 38 1007.2
20260503211758 50 287 4.3 16.5 0.00 0.00 0.00 39 1007.2
20260503211143 50 299 11.3 18.2 0.00 0.00 0.00 39 1007.3
20260503210527 50 240 7.8 20.0 0.00 0.00 0.00 38 1007.1
20260503210029 50 285 14.8 17.4 0.00 0.00 0.00 39 1007.3
20260503205528 50 337 9.6 17.4 0.00 0.00 0.00 39 1007.2
20260503205027 49 338 11.3 19.1 0.00 0.00 0.00 38 1007.1
20260503204643 49 314 9.6 19.1 0.00 0.00 0.00 39 1007.2
20260503204027 49 278 16.5 24.3 0.00 0.00 0.00 39 1007.3
20260503203528 49 294 13.0 24.3 0.00 0.00 0.00 38 1007.3
20260503203028 49 242 1.7 13.0 0.00 0.00 0.00 39 1007.3
20260503202527 49 289 4.3 22.6 0.00 0.00 0.00 39 1007.4
20260503202143 49 301 11.3 27.8 0.00 0.00 0.00 40 1007.3
20260503201644 49 226 12.2 27.8 0.00 0.00 0.00 39 1007.4
20260503201028 49 256 8.7 15.6 0.00 0.00 0.00 41 1007.4
20260503200642 49 304 3.5 15.6 0.00 0.00 0.00 42 1007.4
20260503200029 49 305 10.4 14.8 0.00 0.00 0.00 41 1007.4
20260503195527 48 347 2.6 14.8 0.00 0.00 0.00 42 1007.4
20260503195027 48 293 8.7 20.0 0.00 0.00 0.00 43 1007.6
20260503194643 48 287 4.3 20.0 0.00 0.00 0.00 43 1007.6
20260503194143 49 293 11.3 15.6 0.00 0.00 0.00 40 1007.6
20260503193529 49 285 7.0 15.6 0.00 0.00 0.00 41 1007.6
20260503193028 49 241 8.7 15.6 0.00 0.00 0.00 40 1007.6
20260503192527 48 345 4.3 20.0 0.00 0.00 0.00 41 1007.7
20260503192143 47 322 10.4 20.0 0.00 0.00 0.00 42 1007.7
20260503191529 47 354 9.6 27.8 0.00 0.00 0.00 41 1007.9
20260503191027 47 298 13.9 27.8 0.00 0.00 0.00 40 1007.9
20260503190643 48 343 8.7 20.9 0.00 0.00 0.00 41 1007.8
20260503190143 48 4 3.5 18.2 0.00 0.00 0.00 41 1007.8
20260503185528 47 326 14.8 18.2 0.00 0.00 0.00 41 1007.8
20260503185027 47 318 16.5 21.7 0.00 0.00 0.00 41 1007.9
20260503184643 47 320 12.2 21.7 0.00 0.00 0.00 41 1007.8
20260503184143 47 272 12.2 20.9 0.00 0.00 0.00 41 1007.8
20260503183528 47 339 11.3 17.4 0.00 0.00 0.00 43 1007.8
20260503183027 47 272 7.8 22.6 0.00 0.00 0.00 42 1007.8
20260503182642 47 264 7.8 22.6 0.00 0.00 0.00 42 1007.7
20260503182027 47 297 13.9 19.1 0.00 0.00 0.00 40 1007.7
20260503181529 47 348 5.2 14.8 0.00 0.00 0.00 41 1007.8
20260503181142 47 328 5.2 13.0 0.00 0.00 0.00 40 1007.8
20260503180528 47 270 3.5 20.9 0.00 0.00 0.00 42 1007.7
20260503180028 47 299 12.2 20.0 0.00 0.00 0.00 40 1007.7
20260503175528 47 280 7.0 20.9 0.00 0.00 0.00 41 1007.6
20260503175142 47 256 7.0 20.9 0.00 0.00 0.00 41 1007.7
20260503174643 47 339 3.5 13.9 0.00 0.00 0.00 41 1007.7
20260503174028 47 289 7.8 19.1 0.00 0.00 0.00 40 1007.7
20260503173527 47 328 17.4 19.1 0.00 0.00 0.00 40 1007.7
20260503173028 48 264 5.2 19.1 0.00 0.00 0.00 41 1007.6
20260503172527 47 216 3.5 19.1 0.00 0.00 0.00 40 1007.7
20260503172027 47 263 9.6 22.6 0.00 0.00 0.00 41 1007.7
20260503171644 48 262 19.1 25.2 0.00 0.00 0.00 41 1007.8
20260503171142 48 256 16.5 20.0 0.00 0.00 0.00 41 1007.7
20260503170528 47 258 9.6 16.5 0.00 0.00 0.00 44 1007.7